Location: Rathdrum
(47.8130°N, 116.8960°W)
Time: 17:12:16
(UTC-07:00)

Amateur Radio Satellites - All Passes

Search period start: 16 October 2017 16:42
Search period end: 17 October 2017 16:42
Location: Rathdrum, 47.8130°N, 116.8960°W

Satellite Date Start Highest point End Downlink Frequencies (MHz)
Time Altitude Azimuth
UKube-1 16 Oct 16:44:40 16:45:43 11° 305° (NW) 16:46:47 .
XW-2B 16 Oct 16:45:04 16:47:05 14° 62° (ENE) 16:49:07 145.730 - 145.750
NUDT-PHONESAT 16 Oct 16:51:04 16:52:25 12° 60° (ENE) 16:53:45 437.300
PCSat 16 Oct 16:51:31 16:56:11 28° 39° (NE) 17:00:49 145.827
XW-2C 16 Oct 17:06:50 17:09:53 23° 66° (ENE) 17:12:56 145.795 - 145.815
AO-7 16 Oct 17:12:24 17:18:07 20° 271° (W) 17:23:53 .
CUTE-I 16 Oct 17:23:58 17:28:53 39° 65° (ENE) 17:33:49 437.470
STARS 16 Oct 17:25:46 17:28:01 14° 89° (E) 17:30:17 437.465
nSIGHT-1 16 Oct 17:26:54 17:30:05 58° 210° (SSW) 17:33:14 .
ITUPSAT 1 16 Oct 17:43:22 17:46:58 21° 300° (WNW) 17:50:34 437.325
HO-68 16 Oct 17:45:01 17:51:22 36° 58° (ENE) 17:57:45 435.675
ISS 16 Oct 17:48:54 17:52:04 44° 212° (SSW) 17:55:12 437.550
LilacSat-2 16 Oct 17:50:42 17:54:32 75° 76° (ENE) 17:58:23 437.200
SO-50 16 Oct 17:53:12 17:56:24 19° 248° (WSW) 17:59:36 436.795
CUBESAT XI-V 16 Oct 17:53:58 17:58:22 46° 290° (WNW) 18:02:45 437.345
XW-2F 16 Oct 17:54:48 17:58:36 73° 75° (ENE) 18:02:23 145.980 - 146.000
CUTE 1.7 + AOD 2 16 Oct 17:55:25 17:58:33 20° 63° (ENE) 18:01:40 437.475
MOZHAYETS 4 16 Oct 17:55:54 17:58:14 14° 303° (WNW) 18:00:32
KAITUO 1B 16 Oct 18:00:35 18:04:18 67° 74° (ENE) 18:08:02 145.475/437.950
BEESAT 16 Oct 18:02:31 18:05:14 15° 303° (WNW) 18:07:57 436.000
XW-2D 16 Oct 18:03:42 18:07:30 81° 259° (WSW) 18:11:20 145.860 - 145.880
CUBEBUG 2 16 Oct 18:11:00 18:14:26 21° 61° (ENE) 18:17:54 437.445
SEEDS 16 Oct 18:11:12 18:14:07 19° 63° (ENE) 18:17:03 437.485
KKS-1 16 Oct 18:15:26 18:19:57 87° 285° (WNW) 18:24:26 437.445
XW-2B 16 Oct 18:17:04 18:20:50 58° 259° (W) 18:24:36 145.730 - 145.750
DOVE 4 16 Oct 18:20:56 18:23:39 17° 270° (W) 18:26:26 437.250
NUDT-PHONESAT 16 Oct 18:22:01 18:25:44 71° 258° (WSW) 18:29:29 437.300
PCSat 16 Oct 18:34:38 18:40:02 67° 241° (WSW) 18:45:23 145.827
XW-2C 16 Oct 18:40:30 18:43:56 31° 264° (W) 18:47:22 145.795 - 145.815
ZACube-1 16 Oct 18:46:14 18:48:57 16° 59° (ENE) 18:51:41 437.345
AAUSAT CUBESAT 2 16 Oct 18:48:00 18:51:02 20° 64° (ENE) 18:54:04 437.432
YUBILEINY 16 Oct 18:55:12 19:00:43 18° 52° (NE) 19:06:13 435.215
UWE-3 16 Oct 18:57:16 19:01:22 32° 67° (ENE) 19:05:32 435.000/436.395/437.385
STARS 16 Oct 19:00:25 19:04:52 72° 286° (WNW) 19:09:17 437.465
CUTE-I 16 Oct 19:04:13 19:08:59 33° 264° (W) 19:13:47 437.470
nSIGHT-1 16 Oct 19:05:14 19:05:47 10° 227° (SW) 19:06:21 .
XW-2A 16 Oct 19:28:26 19:31:50 69° 75° (ENE) 19:35:15 145.665 - 145.685
LilacSat-2 16 Oct 19:29:09 19:29:18 10° 273° (W) 19:29:27 437.200
Oscar 11 16 Oct 19:29:45 19:33:11 23° 64° (ENE) 19:36:38 .
CUTE 1.7 + AOD 2 16 Oct 19:30:00 19:34:05 46° 261° (W) 19:38:11 437.475
HO-68 16 Oct 19:31:48 19:38:49 56° 259° (WSW) 19:45:55 435.675
XW-2F 16 Oct 19:32:55 19:33:10 10° 272° (W) 19:33:27 145.980 - 146.000
KAITUO 1B 16 Oct 19:37:47 19:38:43 11° 272° (W) 19:39:38 145.475/437.950
SEEDS 16 Oct 19:45:24 19:49:28 50° 260° (W) 19:53:33 437.485
BEESAT 3 16 Oct 19:45:30 19:47:28 13° 27° (NNE) 19:49:25 437.485
CUBEBUG 2 16 Oct 19:46:03 19:50:37 57° 260° (W) 19:55:19 437.445
KKS-1 16 Oct 19:53:53 19:55:47 13° 304° (NW) 19:57:42 437.445
FO-29 16 Oct 19:58:35 20:01:28 13° 84° (E) 20:04:27 435.910
AO-73 16 Oct 20:00:40 20:05:12 64° 73° (ENE) 20:09:44 145.935
STRAND 1 16 Oct 20:17:13 20:22:23 65° 102° (ESE) 20:27:30 437.568
ZACube-1 16 Oct 20:20:04 20:24:39 75° 257° (WSW) 20:29:16 437.345
PCSat 16 Oct 20:21:33 20:22:23 10° 259° (W) 20:23:12 145.827
AAUSAT CUBESAT 2 16 Oct 20:22:17 20:26:13 43° 262° (W) 20:30:10 437.432
UWE-3 16 Oct 20:33:35 20:37:46 33° 265° (W) 20:42:02 435.000/436.395/437.385
O/OREOS (USA 219) 16 Oct 20:38:23 20:41:02 15° 99° (E) 20:43:41 437.305
STARS 16 Oct 20:39:35 20:40:23 10° 306° (NW) 20:41:11 437.465
YUBILEINY 16 Oct 20:50:43 20:59:30 68° 77° (ENE) 21:08:17 435.215
DELFI C3 16 Oct 20:54:03 20:57:38 36° 69° (ENE) 21:01:14 145.870
BEESAT 2 16 Oct 20:55:43 20:58:28 17° 32° (NNE) 21:01:13 435.950
Oscar 11 16 Oct 21:05:00 21:09:06 41° 262° (W) 21:13:14 .
Max Valier Satellite 16 Oct 21:05:55 21:09:20 34° 70° (ENE) 21:12:45 145.860
EO-88 16 Oct 21:06:03 21:09:07 26° 67° (ENE) 21:12:12 145.990 - 145.960
BEESAT 3 16 Oct 21:21:56 21:25:53 55° 48° (NE) 21:29:45 437.485
TIGRISAT 16 Oct 21:28:10 21:30:16 13° 87° (E) 21:32:21 435.000
AO-85 16 Oct 21:34:12 21:37:58 27° 39° (NE) 21:41:58 145.980
AO-73 16 Oct 21:39:01 21:41:50 16° 271° (W) 21:44:41 145.935
FO-29 16 Oct 21:40:56 21:47:29 66° 101° (ESE) 21:54:50 435.910
STRAND 1 16 Oct 21:57:18 22:01:05 21° 301° (WNW) 22:04:53 437.568
PRISM 16 Oct 21:58:34 21:59:22 10° 88° (E) 22:00:10 437.425
LO-87 16 Oct 22:09:17 22:11:57 20° 65° (ENE) 22:14:40 145.935 - 145.965
O/OREOS (USA 219) 16 Oct 22:15:19 22:19:52 68° 298° (WNW) 22:24:28 437.305
ESTCUBE 1 16 Oct 22:29:06 22:32:57 29° 65° (ENE) 22:36:48 437.505/2401.250
DELFI C3 16 Oct 22:29:31 22:32:30 21° 267° (W) 22:35:30 145.870
BEESAT 2 16 Oct 22:32:44 22:36:49 86° 52° (NE) 22:40:50 435.950
EO-88 16 Oct 22:39:37 22:42:42 25° 265° (W) 22:45:49 145.990 - 145.960
Max Valier Satellite 16 Oct 22:40:27 22:43:15 20° 267° (W) 22:46:04 145.860
UNISAT 6 16 Oct 22:46:53 22:51:35 78° 103° (ESE) 22:56:10 437.425
YUBILEINY 16 Oct 22:48:19 22:55:38 31° 279° (W) 23:02:59 435.215
BEESAT 3 16 Oct 23:00:18 23:03:03 18° 247° (WSW) 23:05:46 437.485
TIGRISAT 16 Oct 23:02:53 23:07:35 81° 285° (WNW) 23:12:09 435.000
AO-85 16 Oct 23:14:13 23:18:38 57° 237° (WSW) 23:23:23 145.980
QB50P2 16 Oct 23:23:48 23:24:33 10° 87° (E) 23:25:17 145.880/145.840
AIST 2D 16 Oct 23:24:49 23:27:35 22° 94° (E) 23:30:20 435.315
FO-29 16 Oct 23:26:44 23:32:12 29° 299° (WNW) 23:38:10 435.910
PRISM 16 Oct 23:31:04 23:35:11 82° 286° (WNW) 23:39:18 437.425
LO-87 16 Oct 23:41:54 23:45:11 33° 263° (W) 23:48:30 145.935 - 145.965
DUCHIFAT 1 16 Oct 23:43:27 23:45:09 12° 88° (E) 23:46:50 145.980
DX 1 16 Oct 23:57:48 23:59:51 13° 57° (ENE) 00:01:55 434.975-435.025
SPROUT 16 Oct 23:58:07 00:02:18 56° 72° (ENE) 00:06:32 437.525
O/OREOS (USA 219) 16 Oct 23:58:09 00:00:12 13° 319° (NW) 00:02:16 437.305
ESTCUBE 1 17 Oct 00:05:32 00:09:39 35° 263° (W) 00:13:47 437.505/2401.250
VELOX 1 17 Oct 00:12:15 00:16:32 57° 71° (ENE) 00:20:52 145.980
BEESAT 2 17 Oct 00:12:29 00:13:54 12° 251° (WSW) 00:15:18 435.950
RS-15 17 Oct 00:19:27 00:29:39 33° 104° (ESE) 00:39:49 29.354- 29.394
UNISAT 6 17 Oct 00:24:57 00:27:41 16° 302° (WNW) 00:30:22 437.425
UKube-1 17 Oct 00:29:20 00:32:09 17° 60° (ENE) 00:35:00 .
EO-79 17 Oct 00:33:09 00:37:19 49° 100° (E) 00:41:27 145.935-145.965
POLYITAN 1 17 Oct 00:36:43 00:40:55 53° 100° (E) 00:45:05 437.675
TIGRISAT 17 Oct 00:41:35 00:43:28 12° 304° (NW) 00:45:21 435.000
QB50P2 17 Oct 00:56:39 01:00:58 87° 279° (W) 01:05:13 145.880/145.840
AIST 2D 17 Oct 00:57:48 01:00:46 27° 291° (WNW) 01:03:43 435.315
NANOSAT C BR1 17 Oct 01:04:01 01:08:19 89° 263° (W) 01:12:34 145.865
PRISM 17 Oct 01:09:04 01:09:45 10° 304° (WNW) 01:10:26 437.425
DUCHIFAT 1 17 Oct 01:17:04 01:21:20 75° 286° (WNW) 01:25:33 145.980
50 SAT 17 Oct 01:21:07 01:24:23 80° 257° (WSW) 01:27:40 437.505
M-CUBED/EXP-1 PRIME 17 Oct 01:30:49 01:31:57 11° 97° (E) 01:33:06 437.505
DX 1 17 Oct 01:31:05 01:35:25 83° 257° (WSW) 01:39:47 434.975-435.025
SPROUT 17 Oct 01:35:51 01:38:33 16° 270° (W) 01:41:16 437.525
ITUPSAT 1 17 Oct 01:39:30 01:42:13 15° 56° (ENE) 01:44:56 437.325
BUGSAT 1 17 Oct 01:40:26 01:44:38 54° 100° (E) 01:48:45 437.445
MOZHAYETS 4 17 Oct 01:46:53 01:49:53 17° 60° (ENE) 01:52:53
VELOX 1 17 Oct 01:50:32 01:53:21 17° 269° (W) 01:56:11 145.980
Oscar 19 17 Oct 01:51:48 01:56:32 36° 97° (E) 02:01:12 437.125/150
Gurwin Techsat 1B 17 Oct 01:52:12 01:56:42 27° 93° (E) 02:01:08 435.225
BEESAT 17 Oct 01:56:40 02:00:13 21° 60° (ENE) 02:03:46 436.000
UKube-1 17 Oct 02:03:31 02:07:46 59° 259° (W) 02:12:02 .
EO-79 17 Oct 02:09:38 02:12:45 20° 298° (WNW) 02:15:51 145.935-145.965
POLYITAN 1 17 Oct 02:13:20 02:16:19 19° 298° (WNW) 02:19:17 437.675
RS-15 17 Oct 02:28:28 02:40:52 86° 308° (NW) 02:53:12 29.354- 29.394
QB50P2 17 Oct 02:34:34 02:36:02 12° 303° (WNW) 02:37:31 145.880/145.840
NANOSAT C BR1 17 Oct 02:41:46 02:43:20 12° 303° (WNW) 02:44:55 145.865
DUCHIFAT 1 17 Oct 02:56:07 02:56:12 10° 305° (NW) 02:56:18 145.980
M-CUBED/EXP-1 PRIME 17 Oct 03:03:18 03:06:40 59° 292° (WNW) 03:10:14 437.505
AO-7 17 Oct 03:14:13 03:20:55 26° 92° (E) 03:27:34 .
ITUPSAT 1 17 Oct 03:14:33 03:19:22 86° 255° (WSW) 03:24:14 437.325
BUGSAT 1 17 Oct 03:16:40 03:19:35 18° 299° (WNW) 03:22:29 437.445
MOZHAYETS 4 17 Oct 03:21:54 03:26:31 68° 258° (WSW) 03:31:10
CUBESAT XI-V 17 Oct 03:23:26 03:27:32 32° 67° (ENE) 03:31:38 437.345
Oscar 19 17 Oct 03:31:12 03:35:49 35° 295° (WNW) 03:40:24 437.125/150
Gurwin Techsat 1B 17 Oct 03:31:45 03:36:52 48° 292° (WNW) 03:41:57 435.225
BEESAT 17 Oct 03:32:53 03:37:36 58° 259° (W) 03:42:21 436.000
KKS-1 17 Oct 03:41:51 03:44:47 18° 60° (ENE) 03:47:44 437.445
NO-84 17 Oct 03:54:41 03:57:34 18° 129° (SE) 04:00:25 435.350 FM
ITAMSAT 1 17 Oct 03:55:13 03:59:57 33° 96° (E) 04:04:39 435.822/435.867
STARS 17 Oct 04:25:09 04:28:20 20° 61° (ENE) 04:31:31 437.465
DOVE 4 17 Oct 04:37:34 04:39:46 13° 87° (E) 04:42:00 437.250
RS-15 17 Oct 04:43:40 04:55:12 42° 337° (NNW) 05:06:31 29.354- 29.394
ITUPSAT 1 17 Oct 04:56:24 04:57:56 11° 273° (W) 04:59:28 437.325
CUBESAT XI-V 17 Oct 05:00:43 05:04:52 32° 264° (W) 05:09:02 437.345
O/OREOS (USA 219) 17 Oct 05:05:45 05:06:45 11° 38° (NE) 05:07:46 437.305
AO-7 17 Oct 05:06:13 05:14:31 80° 293° (WNW) 05:22:49 .
KKS-1 17 Oct 05:16:31 05:20:53 62° 258° (WSW) 05:25:20 437.445
NO-84 17 Oct 05:30:15 05:34:32 84° 148° (SSE) 05:38:41 435.350 FM
ITAMSAT 1 17 Oct 05:34:37 05:39:27 39° 294° (WNW) 05:44:16 435.822/435.867
CUTE-I 17 Oct 05:39:39 05:41:14 11° 85° (E) 05:42:49 437.470
XW-2B 17 Oct 05:48:01 05:49:13 11° 88° (E) 05:50:23 145.730 - 145.750
STRAND 1 17 Oct 05:59:07 06:02:54 21° 59° (ENE) 06:06:41 437.568
STARS 17 Oct 06:00:02 06:04:19 52° 259° (W) 06:08:39 437.465
XW-2C 17 Oct 06:09:39 06:12:29 20° 93° (E) 06:15:18 145.795 - 145.815
DOVE 4 17 Oct 06:13:10 06:18:01 90° 293° (WNW) 06:23:09 437.250
O/OREOS (USA 219) 17 Oct 06:42:44 06:47:17 53° 60° (ENE) 06:51:47 437.305
LilacSat-2 17 Oct 06:54:35 06:58:21 70° 102° (ESE) 07:02:05 437.200
HO-68 17 Oct 06:56:04 07:01:52 25° 91° (E) 07:07:37 435.675
XW-2F 17 Oct 06:57:19 07:01:03 66° 102° (ESE) 07:04:44 145.980 - 146.000
AO-7 17 Oct 07:00:00 07:06:09 24° 315° (NW) 07:12:17 .
RS-15 17 Oct 07:00:37 07:11:40 36° 11° (N) 07:22:18 29.354- 29.394
KAITUO 1B 17 Oct 07:01:59 07:05:38 58° 100° (E) 07:09:16 145.475/437.950
XW-2D 17 Oct 07:06:43 07:10:29 87° 284° (WNW) 07:14:13 145.860 - 145.880
NO-84 17 Oct 07:08:25 07:12:18 35° 345° (NNW) 07:16:00 435.350 FM
CUTE 1.7 + AOD 2 17 Oct 07:11:34 07:14:58 23° 93° (E) 07:18:20 437.475
CUTE-I 17 Oct 07:16:47 07:22:11 76° 104° (ESE) 07:27:33 437.470
XW-2B 17 Oct 07:20:04 07:23:48 64° 286° (WNW) 07:27:30 145.730 - 145.750
NUDT-PHONESAT 17 Oct 07:22:23 07:26:05 83° 282° (WNW) 07:29:43 437.300
SEEDS 17 Oct 07:26:02 07:29:13 21° 92° (E) 07:32:22 437.485
CUBEBUG 2 17 Oct 07:33:47 07:37:43 26° 93° (E) 07:41:33 437.445
STRAND 1 17 Oct 07:36:32 07:41:37 65° 258° (WSW) 07:46:46 437.568
XW-2C 17 Oct 07:43:21 07:46:46 34° 290° (WNW) 07:50:10 145.795 - 145.815
DOVE 4 17 Oct 07:52:29 07:55:06 15° 301° (WNW) 07:57:46 437.250
FO-29 17 Oct 07:58:12 08:02:57 37° 64° (ENE) 08:08:02 435.910
AAUSAT CUBESAT 2 17 Oct 08:01:01 08:04:15 22° 93° (E) 08:07:29 437.432
YUBILEINY 17 Oct 08:04:41 08:09:02 15° 71° (ENE) 08:13:24 435.215
ZACube-1 17 Oct 08:06:02 08:08:59 17° 89° (E) 08:11:53 437.345
SO-50 17 Oct 08:09:04 08:13:29 62° 124° (ESE) 08:17:57 436.795
UNISAT 6 17 Oct 08:14:23 08:16:58 15° 58° (ENE) 08:19:33 437.425
XW-2A 17 Oct 08:19:15 08:22:29 42° 99° (E) 08:25:40 145.665 - 145.685
UWE-3 17 Oct 08:19:18 08:23:39 41° 97° (E) 08:27:52 435.000/436.395/437.385
O/OREOS (USA 219) 17 Oct 08:22:58 08:26:18 20° 259° (W) 08:29:37 437.305
TIGRISAT 17 Oct 08:29:29 08:32:39 19° 60° (ENE) 08:35:52 435.000
LilacSat-2 17 Oct 08:30:38 08:32:05 12° 300° (WNW) 08:33:33 437.200
XW-2F 17 Oct 08:33:06 08:34:40 12° 299° (WNW) 08:36:13 145.980 - 146.000
KAITUO 1B 17 Oct 08:37:22 08:39:11 13° 299° (WNW) 08:41:00 145.475/437.950
HO-68 17 Oct 08:43:03 08:50:15 73° 291° (WNW) 08:57:25 435.675
NO-84 17 Oct 08:46:53 08:50:29 29° 6° (N) 08:53:51 435.350 FM
CUTE 1.7 + AOD 2 17 Oct 08:47:01 08:50:54 37° 291° (WNW) 08:54:46 437.475
Oscar 11 17 Oct 08:48:41 08:52:25 28° 94° (E) 08:56:06 .
PRISM 17 Oct 08:50:31 08:52:27 13° 59° (ENE) 08:54:24 437.425
CUTE-I 17 Oct 08:57:54 09:01:40 20° 303° (WNW) 09:05:24 437.470
SEEDS 17 Oct 09:01:09 09:05:04 41° 290° (WNW) 09:08:58 437.485
CUBEBUG 2 17 Oct 09:10:02 09:14:28 40° 291° (WNW) 09:18:46 437.445
RS-15 17 Oct 09:14:56 09:27:00 64° 42° (NE) 09:38:23 29.354- 29.394
PCSat 17 Oct 09:19:15 09:24:32 57° 118° (ESE) 09:29:52 145.827
AO-73 17 Oct 09:21:20 09:25:48 85° 106° (ESE) 09:30:06 145.935
Tancredo 1 17 Oct 09:29:59 09:30:26 11° 141° (SE) 09:30:53 437.200
AAUSAT CUBESAT 2 17 Oct 09:36:01 09:39:50 37° 290° (WNW) 09:43:38 437.432
ZACube-1 17 Oct 09:41:16 09:45:38 55° 288° (WNW) 09:49:52 437.345
FO-29 17 Oct 09:43:27 09:48:08 34° 266° (W) 09:53:08 435.910
UNISAT 6 17 Oct 09:48:22 09:53:00 84° 257° (WSW) 09:57:44 437.425
SO-50 17 Oct 09:50:32 09:54:18 26° 324° (NW) 09:58:06 436.795
XW-2A 17 Oct 09:53:01 09:54:51 14° 297° (WNW) 09:56:41 145.665 - 145.685
YUBILEINY 17 Oct 09:55:30 10:04:04 69° 94° (E) 10:12:44 435.215
UWE-3 17 Oct 09:56:08 09:59:53 25° 296° (WNW) 10:03:32 435.000/436.395/437.385
DELFI C3 17 Oct 10:01:40 10:05:21 36° 97° (E) 10:09:02 145.870
AIST 2D 17 Oct 10:02:53 10:04:57 15° 64° (ENE) 10:07:01 435.315
TIGRISAT 17 Oct 10:04:15 10:08:52 64° 259° (W) 10:13:33 435.000
EO-88 17 Oct 10:04:35 10:07:21 20° 93° (E) 10:10:07 145.990 - 145.960
Max Valier Satellite 17 Oct 10:05:56 10:09:11 28° 96° (E) 10:12:24 145.860
QB50P2 17 Oct 10:18:50 10:21:02 14° 59° (ENE) 10:23:14 145.880/145.840
PRISM 17 Oct 10:23:08 10:27:10 73° 258° (WSW) 10:31:15 437.425
NO-84 17 Oct 10:24:33 10:28:26 63° 28° (NNE) 10:31:59 435.350 FM
Oscar 11 17 Oct 10:24:42 10:28:33 32° 293° (WNW) 10:32:23 .
NANOSAT C BR1 17 Oct 10:25:54 10:27:56 13° 58° (ENE) 10:30:00 145.865
HO-68 17 Oct 10:32:08 10:36:50 19° 312° (NW) 10:41:32 435.675
DUCHIFAT 1 17 Oct 10:38:07 10:40:37 15° 60° (ENE) 10:43:07 145.980
AO-73 17 Oct 10:59:18 11:01:20 13° 302° (WNW) 11:03:21 145.935
Tancredo 1 17 Oct 11:00:07 11:01:56 70° 335° (NNW) 11:03:48 437.200
PCSat 17 Oct 11:03:27 11:08:15 31° 318° (NW) 11:13:05 145.827
LO-87 17 Oct 11:05:52 11:08:04 15° 91° (E) 11:10:14 145.935 - 145.965
RS-15 17 Oct 11:28:01 11:39:11 49° 249° (WSW) 11:49:47 29.354- 29.394
EO-79 17 Oct 11:28:19 11:32:29 56° 72° (ENE) 11:36:41 145.935-145.965
UNISAT 6 17 Oct 11:29:30 11:30:28 11° 275° (W) 11:31:26 437.425
POLYITAN 1 17 Oct 11:31:59 11:36:12 61° 72° (ENE) 11:40:27 437.675
AIST 2D 17 Oct 11:34:25 11:37:48 44° 261° (W) 11:41:11 435.315
SO-50 17 Oct 11:35:20 11:36:20 11° 348° (NNW) 11:37:22 436.795
Oscar 19 17 Oct 11:36:09 11:38:29 13° 53° (NE) 11:40:49 437.125/150
DELFI C3 17 Oct 11:36:50 11:39:54 22° 295° (WNW) 11:42:58 145.870
EO-88 17 Oct 11:37:49 11:41:04 31° 291° (WNW) 11:44:19 145.990 - 145.960
Max Valier Satellite 17 Oct 11:39:55 11:42:55 23° 293° (WNW) 11:45:52 145.860
Gurwin Techsat 1B 17 Oct 11:41:26 11:42:45 11° 50° (NE) 11:44:04 435.225
nSIGHT-1 17 Oct 11:42:46 11:45:41 34° 145° (SE) 11:48:38 .
QB50P2 17 Oct 11:51:58 11:56:14 77° 256° (WSW) 12:00:33 145.880/145.840
ESTCUBE 1 17 Oct 11:54:01 11:58:11 37° 97° (E) 12:02:19 437.505/2401.250
YUBILEINY 17 Oct 11:54:06 12:01:37 32° 296° (WNW) 12:09:15 435.215
NANOSAT C BR1 17 Oct 11:58:47 12:03:03 80° 257° (WSW) 12:07:20 145.865
NO-84 17 Oct 12:02:29 12:05:30 24° 228° (SW) 12:08:19 435.350 FM
ISS 17 Oct 12:06:44 12:09:52 47° 148° (SSE) 12:13:02 437.550
DUCHIFAT 1 17 Oct 12:11:33 12:15:46 67° 258° (WSW) 12:20:02 145.980
M-CUBED/EXP-1 PRIME 17 Oct 12:18:43 12:21:34 25° 62° (ENE) 12:24:21 437.505
AO-7 17 Oct 12:29:11 12:33:35 16° 36° (NE) 12:38:00 .
Tancredo 1 17 Oct 12:32:20 12:33:53 22° 356° (N) 12:35:27 437.200
BUGSAT 1 17 Oct 12:32:51 12:36:57 58° 72° (ENE) 12:41:07 437.445
LO-87 17 Oct 12:38:13 12:41:42 43° 289° (WNW) 12:45:09 145.935 - 145.965
PCSat 17 Oct 12:51:26 12:53:28 12° 343° (NNW) 12:55:29 145.827
BEESAT 3 17 Oct 12:51:39 12:55:09 29° 117° (ESE) 12:58:40 437.485
EO-79 17 Oct 13:05:52 13:08:35 16° 270° (W) 13:11:18 145.935-145.965
POLYITAN 1 17 Oct 13:09:52 13:12:22 15° 270° (W) 13:14:55 437.675
Oscar 19 17 Oct 13:11:47 13:16:56 74° 72° (ENE) 13:22:06 437.125/150
SPROUT 17 Oct 13:15:48 13:20:07 68° 102° (ESE) 13:24:23 437.525
Gurwin Techsat 1B 17 Oct 13:16:25 13:21:37 58° 70° (ENE) 13:26:51 435.225
DX 1 17 Oct 13:17:17 13:19:24 13° 89° (E) 13:21:30 434.975-435.025
SO-50 17 Oct 13:17:34 13:18:55 11° 14° (NNE) 13:20:15 436.795
nSIGHT-1 17 Oct 13:18:43 13:21:53 57° 344° (NNW) 13:25:03 .
ESTCUBE 1 17 Oct 13:31:05 13:34:50 27° 295° (WNW) 13:38:35 437.505/2401.250
AO-85 17 Oct 13:33:24 13:35:58 17° 113° (ESE) 13:38:35 145.980
VELOX 1 17 Oct 13:34:47 13:39:14 72° 103° (ESE) 13:43:39 145.980
ITAMSAT 1 17 Oct 13:40:43 13:42:58 13° 52° (NE) 13:45:15 435.822/435.867
ISS 17 Oct 13:43:11 13:46:22 50° 348° (NNW) 13:49:35 437.550
UKube-1 17 Oct 13:47:46 13:50:41 17° 91° (E) 13:53:34 .
M-CUBED/EXP-1 PRIME 17 Oct 13:53:15 13:56:00 22° 258° (WSW) 13:58:42 437.505
BEESAT 2 17 Oct 14:03:50 14:07:42 49° 122° (ESE) 14:11:38 435.950
Tancredo 1 17 Oct 14:04:06 14:05:50 37° 16° (NNE) 14:07:34 437.200
50 SAT 17 Oct 14:08:54 14:12:09 52° 101° (E) 14:15:23 437.505
BUGSAT 1 17 Oct 14:10:11 14:12:41 15° 270° (W) 14:15:12 437.445
AO-7 17 Oct 14:16:36 14:24:29 50° 60° (ENE) 14:32:22 .
BEESAT 3 17 Oct 14:28:51 14:32:37 37° 316° (NW) 14:36:24 437.485
PCSat 17 Oct 14:38:39 14:39:32 10° 10° (N) 14:40:24 145.827
DX 1 17 Oct 14:51:43 14:56:05 72° 287° (WNW) 15:00:26 434.975-435.025
SPROUT 17 Oct 14:52:57 14:55:29 16° 300° (WNW) 14:58:02 437.525
Oscar 19 17 Oct 14:53:34 14:56:49 17° 271° (W) 15:00:05 437.125/150
nSIGHT-1 17 Oct 14:55:26 14:58:30 40° 4° (N) 15:01:34 .
SO-50 17 Oct 14:56:55 15:00:53 28° 37° (NE) 15:04:53 436.795
Gurwin Techsat 1B 17 Oct 14:57:53 15:01:57 22° 269° (W) 15:06:03 435.225
AO-85 17 Oct 15:12:05 15:15:55 55° 312° (NW) 15:19:55 145.980
ITUPSAT 1 17 Oct 15:12:25 15:15:49 19° 91° (E) 15:19:11 437.325
VELOX 1 17 Oct 15:12:32 15:15:08 16° 301° (WNW) 15:17:45 145.980
MOZHAYETS 4 17 Oct 15:13:59 15:17:34 22° 92° (E) 15:21:05
ITAMSAT 1 17 Oct 15:16:22 15:21:32 71° 72° (ENE) 15:26:45 435.822/435.867
ISS 17 Oct 15:20:03 15:23:13 43° 7° (N) 15:26:22 437.550
UKube-1 17 Oct 15:22:48 15:27:01 53° 289° (WNW) 15:31:13 .
BEESAT 17 Oct 15:29:41 15:33:47 27° 95° (E) 15:37:51 436.000
Tancredo 1 17 Oct 15:35:55 15:37:20 20° 214° (SW) 15:38:46 437.200
BEESAT 2 17 Oct 15:42:14 15:45:39 26° 321° (NW) 15:49:06 435.950
50 SAT 17 Oct 15:42:47 15:44:04 12° 298° (WNW) 15:45:21 437.505
DOVE 4 17 Oct 15:46:42 15:49:17 16° 60° (ENE) 15:51:56 437.250
AO-7 17 Oct 16:09:30 16:17:21 45° 260° (W) 16:25:15 .
BEESAT 3 17 Oct 16:10:16 16:11:16 11° 338° (NNW) 16:12:16 437.485
PCSat 17 Oct 16:20:44 16:25:04 23° 36° (NE) 16:29:21 145.827
DX 1 17 Oct 16:30:54 16:31:28 10° 305° (NW) 16:32:01 434.975-435.025
nSIGHT-1 17 Oct 16:31:48 16:35:01 87° 27° (NNE) 16:38:15 .
XW-2B 17 Oct 16:33:24 16:34:10 10° 59° (ENE) 16:34:56 145.730 - 145.750
